cover

John Cosani - Spaceman (Kastis Torrau Remix)

Get it on iTunes StoreListen on Apple Music

Trackname / Key / BPM / Publish dateArtists, Remixers / Label
123 bpm, 5A / C minor, 2016-02-23, Progressive House,  1  22

Tracks in release Sound Clinique III (Progressive Technology)

#Trackname / Key / BPM / Publish dateArtists, Remixers / Label
1 124 bpm, 5A / C minor, 2016-02-23, Progressive House,  0  22
2 130 bpm, 8A / A minor, 2016-02-23, Progressive House,  0  22
3 126 bpm, 6B / Bb major, 2016-02-23, Progressive House,  0  22
4 120 bpm, 6A / G minor, 2016-02-23, Progressive House,  0  22
5 125 bpm, 10A / B minor, 2016-02-23, Progressive House,  0  22
6 124 bpm, 9B / G major, 2016-02-23, Progressive House,  0  22
7 122 bpm, 5A / C minor, 2016-02-23, Progressive House,  0  22
8 123 bpm, 5A / C minor, 2016-02-23, Progressive House,  1  22
9 120 bpm, 11A / F# minor, 2016-02-23, Progressive House,  0  22
10 122 bpm, 5A / C minor, 2016-02-23, Progressive House,  0  22
11 122 bpm, 12B / E major, 2016-02-23, Progressive House,  1  22
12 124 bpm, 2A / Eb minor, 2016-02-23, Progressive House,  0  22
13 124 bpm, 8A / A minor, 2016-02-23, Progressive House,  0  22
14 120 bpm, 3A / Bb minor, 2016-02-23, Progressive House,  0  22
15 121 bpm, 5A / C minor, 2016-02-23, Progressive House,  0  22
16 124 bpm, 11A / F# minor, 2016-02-23, Techno,  0  22
17 120 bpm, 11A / F# minor, 2016-02-23, Progressive House,  1  22
18 122 bpm, 1A / Ab minor, 2016-02-23, Progressive House,  1  22
1
19 124 bpm, 9A / E minor, 2016-02-23, Breaks,  0  22
20 122 bpm, 3A / Bb minor, 2016-02-23, Progressive House,  1  22
21 121 bpm, 11B / A major, 2016-02-23, Progressive House,  0  22
22 117 bpm, 10A / B minor, 2016-02-23, Progressive House,  2  22

Recommendations

#Trackname / Key / BPM / Publish dateArtists, Remixers / Label
1 122 bpm, 11B / A major, 2016-03-04, Tech House,  13  1   25
2 123 bpm, 5B / Eb major, 2016-01-18, Minimal,  7  1   3
3 120 bpm, 8A / A minor, 2016-03-07, Tech House,  6  1   4
4 120 bpm, 1A / Ab minor, 2016-03-21, Deep House,  2  1   3
5 123 bpm, 5A / C minor, 2014-08-04, Tech House,  2  1   3
6 122 bpm, 3A / Bb minor, 2014-11-13, Deep House,  2  1   5
7 123 bpm, 5A / C minor, 2016-01-13, Tech House,  1  1   5
8 124 bpm, 6B / Bb major, 2016-03-17, Tech House,  1  1   21
9 122 bpm, 4B / Ab major, 2016-03-09, Tech House,  1  1   18

Charts

ArtistTitleGenresPublish date
Marcus MeinhardtApichada ChartsTech House, Deep House, Minimal, Progressive House 2016-03-22
×

Sign in

Sign in to access your personalized pages, follow artists and labels you love, and create playlists fromyour favorite tracks.

Please wait...